Today's Forecast

Tonight

Tonight: Partly cloudy, with a low around 48. Calm wind.
Partly Cloudy

Low: 48 °F

Saturday

Saturday: Mostly sunny, with a high near 76. Calm wind becoming southwest 5 to 7 mph in the morning.
Mostly Sunny

High: 76 °F

Weather Almanac

Today In 2020
High: 57.5°F
Low: 25.2°F

Today in 2019
High: 53.2°F
Low: 29.1°F

Columbia Metro Airport

Dec 3rd Weather Records
Astronomical Info

Sunrise:
07:12 am

Sunset:
05:15 pm
Civil Twilight    
Dawn:
06:45 am
Dusk:
05:42 pm
Moonrise: 06:19 am
Moonset: 04:47 pm
New MoonDec 04
First Qtr.Dec 10
Full MoonDec 18
Last Qtr.Dec 26
Current PhaseNew Moon 0%

Site menu:

About:

weather.olc.net provides weather information from NOAA, the National Weather Service, Weather Underground, and current weather data collected outside of Orangeburg, SC near Great Branch.

Regional Weather Roundup
Issued by NWS Columbia, SC


000
ASUS42 KCAE 040410
RWRCAE
REGIONAL WEATHER ROUNDUP
NATIONAL WEATHER SERVICE COLUMBIA SC
1100 PM EST FRI DEC 03 2021

NOTE: "FAIR" INDICATES FEW OR NO CLOUDS BELOW 12,000 FEET WITH NO
SIGNIFICANT WEATHER AND/OR OBSTRUCTIONS TO VISIBILITY.

NOT ALL STATIONS ARE QUALITY CONTROLLED BY THE NATIONAL
WEATHER SERVICE. USE DATA WITH CAUTION...ESPECIALLY
DEWPOINT OBSERVATIONS.

SCZ001>059-115-116-135>137-GAZ040-063>065-077-040500-
...UPSTATE SOUTH CAROLINA...

CITY           SKY/WX    TMP DP  RH WIND       PRES   REMARKS
ANDERSON       MOCLDY    56  40  55 SW6       30.04S
LIBERTY        MOCLDY    51  43  73 CALM      30.03S
SPARTANBURG    MOCLDY    59  37  44 SW5       30.02S
CLEMSON        MOCLDY    60  40  47 W7        30.04R
GREENVILLE     MOCLDY    58  41  53 W6        30.03S
GREENWOOD      MOCLDY    57  42  57 SW8       30.06R
GREER          MOCLDY    57  37  47 SW7       30.03S
ROCK HILL      PTCLDY    51  43  74 S7        30.03S
CHESTER        PTCLDY    57  39  51 S3        30.04S
LAURENS        MOCLDY    59  43  55 SW8       30.03S


...CENTRAL SOUTH CAROLINA...

CITY           SKY/WX    TMP DP  RH WIND       PRES   REMARKS
COLUMBIA APT   MOCLDY    52  44  74 CALM      30.04S
COLUMBIA OWENS MOCLDY    54  46  74 CALM      30.06R
MCENTIRE ANGB  PTCLDY    52  46  80 CALM      30.04S
ORANGEBURG     MOCLDY    52  47  83 CALM      30.07R
SUMTER SHAW    MOCLDY    56  46  67 CALM      30.05R
AIKEN          FAIR      53  44  72 SW5       30.07S
BARNWELL       FAIR      52  45  76 CALM      30.06S
MANNING        FAIR      50  43  76 CALM      30.07S
CAMDEN         FAIR      57  45  62 CALM      30.05S
LANCASTER      PTCLDY    57  45  62 CALM      30.04S
WINNSBORO      PTCLDY    59  45  58 S6        30.04S


...EASTERN AND COASTAL SOUTH CAROLINA...

CITY           SKY/WX    TMP DP  RH WIND       PRES   REMARKS
MYRTLE BEACH   PTCLDY    57  54  89 S7        30.08F
N MYRTLE BCH   PTCLDY    54  52  93 SW3       30.08S
CONWAY         FAIR      46  43  87 CALM      30.08S
MARION         FAIR      55  45  67 S6        30.06F
HARTSVILLE     MOCLDY    59  43  55 CALM      30.05S
FLORENCE       PTCLDY    59  43  55 S5        30.06S
DARLINGTON     MOCLDY    57  45  64 S6        30.06R
CHARLESTON APT PTCLDY    54  49  83 CALM      30.07F
MOUNT PLEASANT FAIR      50  50 100 CALM      30.07F
WALTERBORO     MOCLDY    50  48  93 CALM      30.08S
BEAUFORT       MOCLDY    53  50  89 SW3       30.08R
HILTON HEAD    MOCLDY    55  52  88 SW5       30.09S


...EASTERN GEORGIA...

CITY           SKY/WX    TMP DP  RH WIND       PRES   REMARKS
AUGUSTA BUSH F MOCLDY    48  44  86 CALM      30.05S
AUGUSTA DANIEL MOCLDY    64  44  48 CALM      30.06S
THOMSON        MOCLDY    56  44  64 SW5       30.06S
WASHINGTON     FAIR      61  43  51 W7        30.07R
CLAXTON        FAIR      51  50  94 CALM      30.10R
SYLVANIA       PTCLDY    51  47  86 CALM      30.08F
STATESBORO     PTCLDY    50  47  90 CALM      30.08S
SAVANNAH       PTCLDY    58  51  78 SW6       30.09S


...SOUTHERN NORTH CAROLINA...

CITY           SKY/WX    TMP DP  RH WIND       PRES   REMARKS
CHARLOTTE      PTCLDY    57  44  62 S5        30.02S
MONROE         PTCLDY    62  43  49 SW6       30.02S
WADESBORO      PTCLDY    56  41  57 S3        30.03S
ROCKINGHAM     PTCLDY    60  44  54 S7        30.04S
RUTHERFORDTON  PTCLDY    50  41  71 CALM      30.02S
ASHEVILLE      PTCLDY    47  39  74 CALM      30.08R

$$